Dallas Addison, TX

10:50 PM CDT on March 22, 2017 (GMT -0500)
Addison

Weather History for KADS - January, 2014

Change the Weather History Date:

Wednesday, January 22, 2014

  Actual Average Record
Temperature  
Mean Temperature 45 °F -  
Max Temperature 57 °F 55 °F 78 °F (2009)
Min Temperature 33 °F 38 °F 30 °F (2001)
Degree Days  
Heating Degree Days 20    
Moisture  
Dew Point 19 °F    
Average Humidity 39    
Maximum Humidity 56    
Minimum Humidity 27    
Precipitation  
Precipitation 0.00 in - - ()
Sea Level Pressure  
Sea Level Pressure 30.14 in    
Wind  
Wind Speed 7 mph (East)    
Max Wind Speed 15 mph    
Max Gust Speed 23 mph    
Visibility 12 miles    
Events      
Averages and records for this station are not official NWS values.
T = Trace of Precipitation, MM = Missing Value Source: NWS Daily Summary

Daily Weather History Graph

Daily Weather History Graph

Search for Another Location

Airport or City:

Trip Planner

Search our weather history database for the weather conditions in past years. The results will help you decide how hot, cold, wet, or windy it might be!

Date:

Astronomy

Jan. 22, 2014 Rise Set
Actual Time 7:28 AM CST 5:50 PM CST
Civil Twilight 7:01 AM CST 6:16 PM CST
Nautical Twilight 6:31 AM CST 6:46 PM CST
Astronomical Twilight 6:02 AM CST 7:16 PM CST
Moon No Moon Rise 10:51 AM CST (1/22)
Length of Visible Light 11h 15m
Length of Day
10h 22m
Waning Gibbous, 65% of the Moon is Illuminated
Jan 22
Waning Gibbous
Jan 23
Last Quarter
Jan 30
New
Feb 6
First Quarter
Feb 14
Full

Hourly Weather History & Observations

Time (CST) Temp. Windchill Dew Point Humidity Pressure Visibility Wind Dir Wind Speed Gust Speed Precip Events Conditions
12:15 AM 37.8 °F 34.2 °F 15.1 °F 40% 30.18 in 10.0 mi SE 4.6 mph - N/A   Clear
12:35 AM 35.1 °F 31.0 °F 16.2 °F 46% 30.17 in 10.0 mi SSE 4.6 mph - N/A   Clear
12:55 AM 37.9 °F 32.7 °F 15.6 °F 40% 30.16 in 10.0 mi South 6.9 mph - N/A   Clear
1:15 AM 38.1 °F 33.7 °F 15.4 °F 40% 30.16 in 10.0 mi South 5.8 mph - N/A   Clear
1:35 AM 37.4 °F 31.4 °F 16.5 °F 43% 30.15 in 10.0 mi SSE 8.1 mph - N/A   Clear
1:55 AM 37.9 °F 32.1 °F 16.0 °F 41% 30.16 in 10.0 mi SSE 8.1 mph - N/A   Clear
2:15 AM 38.5 °F 35.0 °F 15.3 °F 39% 30.16 in 10.0 mi East 4.6 mph - N/A   Clear
2:35 AM 37.2 °F 32.6 °F 16.0 °F 42% 30.16 in 10.0 mi ESE 5.8 mph - N/A   Clear
2:55 AM 37.0 °F 32.4 °F 16.5 °F 43% 30.16 in 10.0 mi ESE 5.8 mph - N/A   Clear
3:15 AM 36.5 °F 31.8 °F 17.1 °F 45% 30.16 in 10.0 mi ESE 5.8 mph - N/A   Clear
3:55 AM 35.6 °F 29.9 °F 17.4 °F 48% 30.15 in 10.0 mi ESE 6.9 mph - N/A   Clear
4:15 AM 35.1 °F 29.3 °F 17.8 °F 49% 30.14 in 10.0 mi ESE 6.9 mph - N/A   Clear
4:35 AM 34.9 °F 29.9 °F 19.0 °F 52% 30.13 in 10.0 mi ESE 5.8 mph - N/A   Clear
4:55 AM 35.6 °F 29.9 °F 19.4 °F 52% 30.13 in 10.0 mi ESE 6.9 mph - N/A   Clear
5:49 AM 33.8 °F 27.7 °F 17.6 °F 52% 30.12 in 15.0 mi ESE 6.9 mph - N/A   Clear
6:47 AM 33.8 °F 27.0 °F 19.4 °F 56% 30.12 in 15.0 mi SE 8.1 mph - N/A   Clear
7:47 AM 35.6 °F 32.8 °F 19.4 °F 52% 30.13 in 15.0 mi ESE 3.5 mph - N/A   Partly Cloudy
8:47 AM 39.2 °F 33.0 °F 19.4 °F 45% 30.13 in 15.0 mi SSE 9.2 mph - N/A   Partly Cloudy
9:50 AM 44.6 °F 42.2 °F 21.2 °F 39% 30.13 in 13.0 mi SSE 4.6 mph - N/A   Partly Cloudy
10:50 AM 48.2 °F - 21.2 °F 34% 30.15 in 13.0 mi WSW 4.6 mph - N/A   Partly Cloudy
11:47 AM 51.8 °F - 21.2 °F 30% 30.13 in 13.0 mi Calm Calm - N/A   Scattered Clouds
1:47 PM 57.2 °F - 23.0 °F 27% 30.07 in 13.0 mi NE 6.9 mph - N/A   Mostly Cloudy
2:47 PM 55.4 °F - 23.0 °F 29% 30.05 in 13.0 mi ENE 8.1 mph - N/A   Mostly Cloudy
4:48 PM 55.4 °F - 23.0 °F 29% 30.04 in 15.0 mi ENE 10.4 mph - N/A   Mostly Cloudy
5:47 PM 51.8 °F - 23.0 °F 33% 30.07 in 13.0 mi ENE 9.2 mph 18.4 mph N/A   Overcast
6:47 PM 51.8 °F - 21.2 °F 30% 30.08 in 13.0 mi ENE 11.5 mph 17.3 mph N/A   Overcast
7:49 PM 50.0 °F - 21.2 °F 32% 30.11 in 13.0 mi NE 15.0 mph 21.9 mph N/A   Overcast
8:47 PM 48.2 °F - 19.4 °F 32% 30.12 in 15.0 mi NE 10.4 mph 17.3 mph N/A   Overcast
9:15 PM 49.3 °F - 20.5 °F 32% 30.13 in 10.0 mi ENE 13.8 mph 18.4 mph N/A   Clear
9:35 PM 49.1 °F - 19.9 °F 32% 30.13 in 10.0 mi ENE 13.8 mph - N/A   Clear
9:47 PM 48.2 °F - 17.6 °F 30% 30.12 in 15.0 mi ENE 15.0 mph 19.6 mph N/A   Overcast
9:55 PM 48.2 °F - 19.4 °F 32% 30.15 in 10.0 mi ENE 10.4 mph 20.7 mph N/A   Clear
10:15 PM 47.5 °F - 19.0 °F 32% 30.16 in 10.0 mi ENE 11.5 mph 16.1 mph N/A   Clear
10:35 PM 46.9 °F - 19.4 °F 34% 30.16 in 10.0 mi NE 10.4 mph 18.4 mph N/A   Clear
10:55 PM 46.4 °F 41.9 °F 20.1 °F 35% 30.17 in 10.0 mi NE 9.2 mph - N/A   Clear
11:15 PM 45.5 °F 40.3 °F 20.7 °F 37% 30.17 in 10.0 mi NE 10.4 mph 17.3 mph N/A   Clear
11:35 PM 45.3 °F 40.6 °F 20.8 °F 38% 30.19 in 10.0 mi ENE 9.2 mph - N/A   Clear
11:55 PM 44.6 °F 38.8 °F 20.5 °F 38% 30.20 in 10.0 mi NE 11.5 mph 23.0 mph N/A   Clear